KOMPSAT 3A

Last updated on Thu Jun 22 2017 00:17:34 GMT+0000 (Coordinated Universal Time)

1 40536U 15014A 17172.52874755 .00000278 00000-0 19815-4 0 9995 2 40536 97.4808 112.1977 0009976 333.6117 137.5261 15.12203210123704

Satellite not in orbit

KOMPSAT 3A